Waarnemingen

Advertentie
Mijn weer
Boulogne, Frankrijk (7002): temperatuur & dauwpunt: 12.11.2017 03:00:00 - 18.11.2017 03:00:00 (CET)Boulogne, Frankrijk (7002): windsnelheid & windstoten: 12.11.2017 03:00:00 - 18.11.2017 03:00:00 (CET)Boulogne, Frankrijk (7002): windrichting: 12.11.2017 03:00:00 - 18.11.2017 03:00:00 (CET)Boulogne, Frankrijk (7002): luchtdruk: 12.11.2017 03:00:00 - 18.11.2017 03:00:00 (CET)Boulogne, Frankrijk (7002): zicht: 12.11.2017 03:00:00 - 18.11.2017 03:00:00 (CET)Boulogne, Frankrijk (7002): neerslag: 12.11.2017 03:00:00 - 18.11.2017 03:00:00 (CET)
Datum & Tijd tt [°C] td [°C] ff [km/u] ff [kn] fx [km/u] fx [kn] dd ppp [hPa] vv [km] rr [mm]
18.11.2017 03:00:00 5,7 1,0 13 7 26 14 W 1026,3 - 0,0
18.11.2017 02:00:00 5,7 1,2 10 6 24 13 W 1026,9 - 0,0
18.11.2017 01:00:00 4,1 0,4 2 1 10 5 Z 1027,3 - 0,0
18.11.2017 00:00:00 3,5 0,9 9 5 11 6 ZO 1027,4 - 0,0
17.11.2017 23:00:00 4,1 1,5 6 4 8 4 OZO 1027,8 - 0,0
17.11.2017 22:00:00 5,2 1,3 5 3 6 3 O 1028,1 15 0,0
17.11.2017 21:00:00 5,4 1,7 3 2 9 5 ONO 1028,0 - 0,0
17.11.2017 20:00:00 6,4 0,9 5 3 10 6 O 1028,0 - 0,0
17.11.2017 19:00:00 6,9 1,2 5 3 16 9 NNO 1028,3 20 0,0
17.11.2017 18:00:00 7,5 2,4 8 5 19 10 NO 1028,4 - 0,0
17.11.2017 17:00:00 7,8 3,1 10 5 17 9 NNO 1028,2 - 0,0
17.11.2017 16:00:00 8,9 3,1 9 5 16 9 NNO 1028,3 25 0,0
17.11.2017 15:00:00 9,3 3,9 9 5 19 10 NNO 1028,5 - 0,0
17.11.2017 14:00:00 9,4 4,8 11 6 19 10 N 1028,9 - 0,0
17.11.2017 13:00:00 9,3 4,9 11 6 23 13 N 1029,2 25 0,0
17.11.2017 12:00:00 9,3 4,9 11 6 23 12 NNO 1029,2 - 0,0
17.11.2017 11:00:00 8,8 4,8 10 5 19 10 NO 1029,1 - 0,0
17.11.2017 10:00:00 7,8 4,2 8 5 18 10 NO 1029,1 25 0,0
17.11.2017 09:00:00 7,7 4,1 9 5 21 11 NO 1029,0 - 0,0
17.11.2017 08:00:00 7,7 4,1 9 5 16 9 NO 1028,6 - 0,0
17.11.2017 07:00:00 8,0 4,6 7 4 14 8 NO 1028,4 20 0,0
17.11.2017 06:00:00 8,3 4,1 6 4 16 9 NO 1028,0 - 0,0
17.11.2017 05:00:00 8,0 4,6 7 4 22 12 NO 1027,7 - 0,0
17.11.2017 04:00:00 8,4 5,1 10 5 20 11 NO 1027,3 15 0,0
17.11.2017 03:00:00 8,6 5,3 9 5 25 13 NO 1027,2 - 0,0
17.11.2017 02:00:00 9,0 6,3 11 6 20 11 NNO 1026,9 - 0,0
17.11.2017 01:00:00 8,9 6,7 11 6 25 13 NO 1026,8 15 0,2
17.11.2017 00:00:00 9,2 7,3 11 6 29 15 NO 1026,6 - 0,0
16.11.2017 23:00:00 9,6 7,9 16 8 40 22 NNO 1026,2 - 0,0
16.11.2017 22:00:00 10,2 9,0 15 8 39 21 N 1025,6 15 0,4
16.11.2017 21:00:00 11,9 9,8 12 7 22 12 WNW 1025,1 - 0,0
16.11.2017 20:00:00 11,7 10,1 14 8 21 11 W 1024,8 - 0,0
16.11.2017 19:00:00 11,5 10,2 14 8 29 16 WZW 1024,3 15 0,0
16.11.2017 18:00:00 12,1 9,7 14 8 27 15 W 1023,8 - 0,0
16.11.2017 17:00:00 12,1 9,3 17 9 30 16 W 1023,6 - 0,0
16.11.2017 16:00:00 12,0 9,4 19 10 27 15 W 1023,3 - 0,0
16.11.2017 15:00:00 11,4 10,0 16 9 23 12 W 1023,2 - 0,0
16.11.2017 14:00:00 11,4 10,5 14 8 24 13 W 1023,3 - 0,0
16.11.2017 13:00:00 11,0 10,4 5 3 28 15 ZZW 1023,4 - 0,2
16.11.2017 12:00:00 11,4 10,6 19 11 29 16 W 1023,6 - 0,0
16.11.2017 11:00:00 11,8 10,4 10 6 22 12 W 1023,6 - 0,2
16.11.2017 10:00:00 12,1 11,5 15 8 32 18 WZW 1023,3 - 0,0
16.11.2017 09:00:00 11,6 11,0 16 8 26 14 ZZW 1022,9 - 0,2
16.11.2017 08:00:00 10,9 10,3 18 10 33 18 ZZW 1022,6 - 0,0
16.11.2017 07:00:00 11,1 10,5 16 8 27 15 ZZW 1022,4 10 0,2
16.11.2017 06:00:00 10,6 10,0 10 6 17 9 ZZO 1022,2 - 0,0
16.11.2017 05:00:00 10,8 10,2 8 4 15 8 Z 1022,6 - 0,0
16.11.2017 04:00:00 10,8 10,3 5 3 12 7 Z 1022,8 10 0,0
16.11.2017 03:00:00 10,7 10,1 6 4 17 9 ZZO 1023,1 - 0,0
16.11.2017 02:00:00 10,6 10,0 9 5 19 10 ZZO 1023,2 - 1,4
16.11.2017 01:00:00 10,5 9,7 12 7 29 15 ZZO 1023,4 15 0,0
16.11.2017 00:00:00 10,6 9,7 15 8 26 14 ZZO 1023,7 - 0,0
15.11.2017 23:00:00 10,7 9,6 16 9 31 17 Z 1023,9 - 0,0
15.11.2017 22:00:00 10,8 9,4 16 8 25 14 Z 1024,2 - 0,0
15.11.2017 21:00:00 10,8 9,7 16 8 26 14 Z 1024,2 - 0,0
15.11.2017 20:00:00 10,8 9,7 14 8 24 13 Z 1024,3 - 0,0
15.11.2017 19:00:00 11,0 10,1 13 7 31 17 Z 1024,4 15 0,0
15.11.2017 18:00:00 11,4 10,5 16 9 27 14 Z 1024,5 - 0,0
15.11.2017 17:00:00 11,8 10,7 10 5 22 12 Z 1024,4 - 0,0
15.11.2017 16:00:00 12,2 10,8 8 4 18 10 Z 1024,7 - 0,0
15.11.2017 15:00:00 12,4 9,8 10 6 19 10 ZZW 1024,9 - 0,0
15.11.2017 14:00:00 12,7 9,7 9 5 18 10 ZZW 1024,5 - 0,0
15.11.2017 13:00:00 12,4 10,1 10 5 19 10 ZZW 1025,1 - 0,0
15.11.2017 12:00:00 11,7 10,4 11 6 17 9 Z 1025,3 - 0,0
15.11.2017 11:00:00 10,9 9,8 7 4 13 7 ZO 1025,6 - 0,0
15.11.2017 10:00:00 10,7 9,5 6 3 10 6 ZZO 1025,5 20 0,0
15.11.2017 09:00:00 10,7 9,3 6 3 14 8 ZZO 1025,3 - 0,0
15.11.2017 08:00:00 11,1 9,2 8 5 20 11 ZW 1025,1 - 0,0
15.11.2017 07:00:00 10,7 8,8 13 7 22 12 WZW 1024,7 20 0,0
15.11.2017 06:00:00 10,8 9,4 11 6 21 12 W 1024,6 - 0,0
15.11.2017 05:00:00 10,9 9,8 17 9 23 13 W 1024,6 - 0,0
15.11.2017 04:00:00 11,3 9,0 13 7 19 11 WNW 1024,7 - 0,0
15.11.2017 03:00:00 11,4 8,8 12 6 22 12 W 1025,0 - 0,0
15.11.2017 02:00:00 11,7 8,5 16 9 23 12 W 1024,8 - 0,0
15.11.2017 01:00:00 11,7 8,4 18 10 26 14 W 1024,9 20 0,0
15.11.2017 00:00:00 11,6 9,3 15 8 32 17 W 1024,9 - 0,0
14.11.2017 23:00:00 11,7 9,6 22 12 31 17 W 1024,9 - 0,0
14.11.2017 22:00:00 11,8 9,4 14 8 27 14 W 1024,8 20 0,0
14.11.2017 21:00:00 11,8 9,2 16 9 33 18 W 1024,9 - 0,0
14.11.2017 20:00:00 11,6 9,2 19 10 32 17 W 1024,8 - 0,0
14.11.2017 19:00:00 11,6 9,5 22 12 33 18 W 1024,7 - 0,0
14.11.2017 18:00:00 11,2 9,1 22 12 35 19 W 1024,5 - 0,0
14.11.2017 17:00:00 11,2 9,1 20 11 37 20 W 1024,4 - 0,0
14.11.2017 16:00:00 11,1 8,8 22 12 39 21 W 1024,3 - 0,0
14.11.2017 15:00:00 10,4 9,6 17 9 34 18 WZW 1024,4 - 0,0
14.11.2017 14:00:00 10,2 9,1 21 11 38 21 WZW 1024,7 - 0,0
14.11.2017 13:00:00 10,3 8,4 20 11 40 21 W 1024,9 - 0,0
14.11.2017 12:00:00 11,2 6,3 22 12 36 19 WZW 1025,2 - 0,0
14.11.2017 11:00:00 10,8 6,2 23 13 40 22 W 1025,2 - 0,0
14.11.2017 10:00:00 10,8 6,0 24 13 40 21 W 1025,0 20 0,0
14.11.2017 09:00:00 10,4 3,2 26 14 47 25 W 1024,8 - 0,0
14.11.2017 08:00:00 10,2 5,6 24 13 43 23 W 1024,5 - 0,0
14.11.2017 07:00:00 9,5 4,5 23 13 39 21 W 1024,3 20 0,0
14.11.2017 06:00:00 8,4 2,4 17 9 30 16 W 1024,9 - 0,0
14.11.2017 05:00:00 8,1 -0,4 17 9 32 17 W 1025,2 - 0,0
14.11.2017 04:00:00 7,8 1,6 21 11 31 17 W 1025,3 - 0,0
14.11.2017 03:00:00 6,7 2,6 14 8 28 15 WZW 1025,6 - 0,0
14.11.2017 02:00:00 4,3 2,3 6 3 13 7 ZZO 1026,0 - 0,0
14.11.2017 01:00:00 4,8 2,7 0 0 11 6 N 1026,2 12 0,0
14.11.2017 00:00:00 5,2 2,9 6 4 12 7 OZO 1026,3 - 0,0
13.11.2017 23:00:00 6,0 3,2 4 2 19 10 OZO 1026,5 - 0,0
13.11.2017 22:00:00 6,5 3,1 13 7 25 13 NNW 1026,4 12 0,0
13.11.2017 21:00:00 6,7 3,3 16 8 27 14 N 1026,2 - 0,0
13.11.2017 20:00:00 6,6 3,4 10 5 19 10 N 1026,3 - 0,0
13.11.2017 19:00:00 6,7 3,3 10 5 29 15 N 1026,2 20 0,0
13.11.2017 18:00:00 7,1 3,2 16 9 36 19 N 1025,7 - 0,0
13.11.2017 17:00:00 7,3 3,2 14 8 35 19 N 1025,4 - 0,0
13.11.2017 16:00:00 8,0 3,6 20 11 42 23 N 1025,0 20 0,0
13.11.2017 15:00:00 8,3 4,1 22 12 46 25 N 1024,6 - 0,0
13.11.2017 14:00:00 7,9 3,9 23 12 47 26 N 1024,6 - 0,0
13.11.2017 13:00:00 7,9 4,3 23 12 47 26 N 1024,5 - 0,0
13.11.2017 12:00:00 7,0 3,8 24 13 50 27 N 1024,5 - 0,0
13.11.2017 11:00:00 6,7 4,0 29 16 54 29 N 1024,1 - 0,0
13.11.2017 10:00:00 6,6 3,9 31 17 56 30 N 1023,6 20 0,0
13.11.2017 09:00:00 5,9 3,4 28 15 64 35 N 1022,8 - 0,0
13.11.2017 08:00:00 5,8 3,1 33 18 64 35 N 1022,2 - 0,0
13.11.2017 07:00:00 5,9 3,1 39 21 67 36 N 1021,4 15 0,0
13.11.2017 06:00:00 6,0 3,3 36 20 64 35 N 1021,1 - 0,0
13.11.2017 05:00:00 6,2 3,4 34 19 68 37 NNW 1020,6 - 0,0
13.11.2017 04:00:00 6,0 2,8 37 20 68 37 N 1019,9 - 0,0
13.11.2017 03:00:00 6,3 2,9 38 21 71 39 NNW 1019,4 - 0,0
13.11.2017 02:00:00 6,6 3,4 33 18 63 34 NNW 1019,1 - 0,0
13.11.2017 01:00:00 6,8 3,4 35 19 64 35 N 1018,2 - 0,0
13.11.2017 00:00:00 6,9 3,1 37 20 68 37 N 1017,6 - 0,0
12.11.2017 23:00:00 7,3 3,7 40 22 70 38 N 1016,3 - 0,0
12.11.2017 22:00:00 7,4 3,3 43 23 77 42 NNW 1015,4 15 0,0
12.11.2017 21:00:00 7,5 3,0 42 23 83 45 NNW 1014,4 - 0,0
12.11.2017 20:00:00 7,5 3,0 39 21 79 42 NNW 1013,5 - 0,0
12.11.2017 19:00:00 7,6 2,5 46 25 81 44 NNW 1012,3 - 0,0
12.11.2017 18:00:00 7,5 2,2 45 24 80 43 NNW 1011,1 - 0,0
12.11.2017 17:00:00 7,3 1,6 45 25 79 43 NNW 1009,9 - 0,0
12.11.2017 16:00:00 7,4 0,6 44 24 74 40 NNW 1009,3 8 0,0
12.11.2017 15:00:00 7,4 0,4 43 23 70 38 NW 1008,3 - 0,0
12.11.2017 14:00:00 7,6 1,2 41 22 68 37 NW 1007,6 - 0,0
12.11.2017 13:00:00 7,3 2,0 38 20 66 35 NW 1007,2 8 0,0
12.11.2017 12:00:00 7,2 2,9 37 20 59 32 NW 1006,9 - 0,0
12.11.2017 11:00:00 7,1 4,7 24 13 52 28 NNW 1006,5 - 0,6
12.11.2017 10:00:00 6,8 5,1 27 14 51 28 NNW 1006,4 - 0,8
12.11.2017 09:00:00 7,2 5,0 20 11 36 19 NNW 1006,4 - 0,0
12.11.2017 08:00:00 6,2 4,8 18 10 47 26 NNW 1006,6 - 1,2
12.11.2017 07:00:00 6,8 5,4 26 14 44 24 NNW 1006,6 8 1,1
12.11.2017 06:00:00 7,1 6,2 14 8 27 14 N 1006,6 - 3,0
12.11.2017 05:00:00 7,1 6,2 10 5 16 9 Z 1007,4 - 1,8
12.11.2017 04:00:00 7,2 6,0 9 5 18 10 ZZO 1008,4 20 0,4
12.11.2017 03:00:00 7,5 5,6 10 6 16 9 ZZO 1009,2 - 0,0

tt = temperatuur
td = dauwpunt
ff = windsnelheid
fx = windstoten
dd = windrichting
ppp = luchtdruk
vv = zicht
rr = neerslag

Weerstations in de omgeving